Regional Weather Roundup
Issued by NWS

Home | Current Version | Previous Version | Text Only | Print | Product List | Glossary Off
Versions: 1 2 3 4 5 6 7 8 9 10 11 12 13 14 15 16 17 18 19 20 21 22 23 24 25 26 27 28 29 30 31 32 33 34 35 36 37 38 39 40 41 42 43 44 45 46 47 48 49 50

000
ASUS45 KSLC 151710
RWRUT

UTAH REGIONAL WEATHER ROUNDUP
NATIONAL WEATHER SERVICE SALT LAKE CITY UT
1000 AM MST FRI DEC 15 2017

UTZ001>011-023>025-151800-

NORTHERN UTAH

CITY           SKY/WX    TMP DP  RH WIND       PRES   REMARKS
BRIGHAM CITY   SUNNY     23  19  85 CALM      30.34S
DUGWAY         MOSUNNY   29  20  70 VRB2      30.32F
HILL AFB       SUNNY     28  17  64 E13       30.30F WCI  17
LOGAN          CLOUDY    22  15  75 CALM      30.33S HAZE
OGDEN          SUNNY     28  19  69 SE5       30.31F WCI  23
SALT LAKE CITY MOSUNNY   33  25  72 SE8       30.30F WCI  26
TOOELE VALLEY  SUNNY     32  27  80 SE7       30.30F WCI  26
WENDOVER       SUNNY     24  22  91 CALM      30.32S
HEBER CITY     PTSUNNY   21  19  93 CALM      30.33S FOG
WEST JORDAN    SUNNY     31  26  80 SE14      30.30F WCI  21

$$

UTZ011>015-024>027-151800-

CENTRAL/NORTHEAST UTAH

CITY           SKY/WX    TMP DP  RH WIND       PRES   REMARKS
PROVO AIRPORT  SUNNY     29  26  89 SE6       30.36F WCI  23
MOAB/CANYONLAN MOSUNNY   35  14  42 SE6       30.36S WCI  30
DELTA          PTSUNNY   27  19  74 CALM      30.34R
PRICE          SUNNY     32  14  47 CALM      30.33R
ROOSEVELT      CLOUDY    27  16  63 CALM      30.35F
VERNAL         CLOUDY    25  16  68 CALM      30.33S

$$

UTZ013>016-019>022-027-151800-

SOUTHERN UTAH

CITY           SKY/WX    TMP DP  RH WIND       PRES   REMARKS
BRYCE CANYON   SUNNY     30   4  33 CALM      30.35R
CEDAR CITY     SUNNY     26  17  68 W3        30.31S
MILFORD        MOSUNNY   21  15  78 S10       30.32F WCI  10
ST GEORGE      SUNNY     36  17  46 SW3       30.37S
HANKSVILLE     MOSUNNY   27  10  50 CALM      30.40S
BLANDING         N/A     35   3  26 CALM      30.41S

$$

REGIONAL REPORTS     COLORADO/ARIZONA

CITY           SKY/WX    TMP DP  RH WIND       PRES   REMARKS
CRAIG, CO      CLOUDY    16  12  84 W5        30.32S WCI   9
GRAND JUNCTION SUNNY     29  13  51 SE5       30.39S WCI  24
RIFLE, CO      SUNNY     23  10  57 CALM      30.41S
MONTROSE, CO   SUNNY     28  12  51 S5        30.40S WCI  23
CORTEZ, CO     SUNNY     32   1  26 E5        30.36R WCI  27
COLORADO CITY    N/A     36  10  35 CALM      30.36S
PAGE, AZ       SUNNY     37  11  34 VRB3      30.35F
GRAND CANYON   SUNNY     41   0  18 CALM      30.35S
KINGMAN, AZ    SUNNY     48  13  24 NW6       30.28S
FLAGSTAFF, AZ  SUNNY     42  -7  12 NE8       30.36R

$$

REGIONAL REPORTS    NEVADA/IDAHO/WYOMING

CITY           SKY/WX    TMP DP  RH WIND       PRES   REMARKS
LAS VEGAS, NV  SUNNY     51  17  26 CALM      30.30R
ELY, NY        MOSUNNY   28   5  37 S12       30.29F WCI  18
ELKO, NV       PTSUNNY   16  13  88 SW3       30.31R
POCATELLO, ID  CLOUDY    18  15  88 NE9       30.30F FOG     WCI   7
BURLEY, ID     SUNNY     23  19  85 VRB5      30.25F WCI  17
FORT BRIDGER,    N/A     38   4  24 W20G28    30.23F WCI  28
EVANSTON, WY   CLOUDY    26  16  65 SW10      30.24F WCI  16
ROCK SPRINGS,  CLOUDY    34  13  41 SW10      30.20S WCI  26

$$



USA.gov is the U.S. government's official web portal to all federal, state and local government web resources and services.